Location: Plainartige
(45.6866°N, 1.7993°E)
Time: 18:18:37
(UTC+00:00)

POLYITAN 1 - Pass Details

Date: 07 July 2022
Orbit: 586 x 605 km, 98.0° (Epoch: 18 August)

Event Time Altitude Azimuth Distance (km) Brightness Sun altitude
Rises 02:15:53 0° 7° (N) 2,867 ? -14.9°
Reaches altitude 10° 02:18:08 10° 1° (N) 1,961 ? -14.6°
Maximum altitude 02:22:11 44° 289° (WNW) 842 ? -14.2°
Enters shadow 02:24:32 22° 229° (SW) 1,329 ? -14.0°
